• In Lithuania
  • List of Countries
  • For 7 days
  • Water Temperature
  • Satellite Maps
  • Weather Map
  • Weather Widgets
  • user-avatar
    Login

    Hourly Weather Tskhaltubo

    Today, 18 January, Thursday

    Time Temperature Precipitation Wind Pressure Humidity
    00:00 +4°C° 0 mm 2 mps 741 mmHg 66%
    01:00 +4°C° 0 mm 2 mps 741 mmHg 66%
    02:00 +4°C° 0 mm 2 mps 741 mmHg 66%
    03:00 +4°C° 0 mm 2 mps 740 mmHg 66%
    04:00 +4°C° 0 mm 2 mps 740 mmHg 66%
    05:00 +4°C° 0 mm 2 mps 740 mmHg 65%
    06:00 +4°C° 0 mm 3 mps 739 mmHg 65%
    07:00 +4°C° 0 mm 3 mps 739 mmHg 63%
    08:00 +4°C° 0 mm 3 mps 739 mmHg 61%
    09:00 +5°C° 0 mm 3 mps 738 mmHg 58%
    10:00 +7°C° 0 mm 3 mps 737 mmHg 56%
    11:00 +8°C° 0 mm 3 mps 736 mmHg 54%
    12:00 +8°C° 0 mm 4 mps 735 mmHg 52%
    13:00 +8°C° 0 mm 4 mps 735 mmHg 53%
    14:00 +8°C° 0 mm 4 mps 734 mmHg 54%
    15:00 +9°C° 0 mm 3 mps 733 mmHg 56%
    16:00 +8°C° 0.1 mm 3 mps 733 mmHg 59%
    17:00 +7°C° 0.1 mm 4 mps 733 mmHg 62%
    18:00 +6°C° 0.1 mm 4 mps 733 mmHg 66%
    19:00 +6°C° 0.4 mm 4 mps 733 mmHg 68%
    20:00 +6°C° 0.4 mm 4 mps 733 mmHg 71%
    21:00 +6°C° 0.4 mm 4 mps 733 mmHg 74%
    22:00 +6°C° 0.8 mm 4 mps 733 mmHg 74%
    23:00 +6°C° 0.8 mm 4 mps 733 mmHg 75%

    Tomorrow, 19 January, Friday

    Time Temperature Precipitation Wind Pressure Humidity
    00:00 +6°C° 0.8 mm 4 mps 732 mmHg 76%
    01:00 +6°C° 0.6 mm 4 mps 733 mmHg 75%
    02:00 +7°C° 0.6 mm 4 mps 733 mmHg 75%
    03:00 +7°C° 0.6 mm 4 mps 733 mmHg 74%
    04:00 +7°C° 0.4 mm 4 mps 734 mmHg 75%
    05:00 +8°C° 0.4 mm 3 mps 734 mmHg 76%
    06:00 +7°C° 0.4 mm 3 mps 735 mmHg 76%
    07:00 +7°C° 0.2 mm 2 mps 736 mmHg 78%
    08:00 +7°C° 0.2 mm 2 mps 736 mmHg 79%
    09:00 +9°C° 0.2 mm 1 mps 737 mmHg 80%
    10:00 +9°C° 0.2 mm 1 mps 737 mmHg 80%
    11:00 +9°C° 0.2 mm 1 mps 738 mmHg 81%
    12:00 +10°C° 0.2 mm 1 mps 738 mmHg 81%
    13:00 +10°C° 0.3 mm 1 mps 739 mmHg 84%
    14:00 +9°C° 0.3 mm 1 mps 739 mmHg 87%
    15:00 +9°C° 0.3 mm 1 mps 739 mmHg 90%
    16:00 +9°C° 0.5 mm 1 mps 740 mmHg 92%
    17:00 +8°C° 0.5 mm 1 mps 741 mmHg 94%
    18:00 +7°C° 0.5 mm 2 mps 742 mmHg 96%
    19:00 +7°C° 0.7 mm 2 mps 743 mmHg 96%
    20:00 +6°C° 0.7 mm 2 mps 744 mmHg 96%
    21:00 +6°C° 0.7 mm 2 mps 744 mmHg 96%
    22:00 +6°C° 0.7 mm 2 mps 745 mmHg 96%
    23:00 +6°C° 0.7 mm 2 mps 745 mmHg 96%

    Day after tomorrow, 20 January, Saturday

    Time Temperature Precipitation Wind Pressure Humidity
    00:00 +6°C° 0.7 mm 2 mps 746 mmHg 96%
    01:00 +6°C° 0.4 mm 2 mps 746 mmHg 95%
    02:00 +6°C° 0.4 mm 2 mps 746 mmHg 95%
    03:00 +6°C° 0.4 mm 1 mps 747 mmHg 94%
    04:00 +6°C° 0.4 mm 1 mps 747 mmHg 94%
    05:00 +6°C° 0.4 mm 1 mps 747 mmHg 93%
    06:00 +6°C° 0.4 mm 1 mps 747 mmHg 92%
    07:00 +6°C° 0.2 mm 1 mps 748 mmHg 91%
    08:00 +5°C° 0.2 mm 0 mps 748 mmHg 89%
    09:00 +6°C° 0.2 mm 0 mps 748 mmHg 88%
    10:00 +7°C° 0 mm 0 mps 748 mmHg 85%
    11:00 +9°C° 0 mm 1 mps 747 mmHg 83%
    12:00 +10°C° 0 mm 1 mps 747 mmHg 80%
    13:00 +10°C° 0 mm 1 mps 747 mmHg 78%
    14:00 +10°C° 0 mm 1 mps 746 mmHg 77%
    15:00 +11°C° 0 mm 1 mps 746 mmHg 75%
    16:00 +10°C° 0 mm 1 mps 746 mmHg 75%
    17:00 +8°C° 0 mm 2 mps 746 mmHg 75%
    18:00 +7°C° 0 mm 2 mps 747 mmHg 75%
    19:00 +7°C° 0 mm 2 mps 747 mmHg 70%
    20:00 +5°C° 0 mm 3 mps 747 mmHg 65%
    21:00 +5°C° 0 mm 3 mps 747 mmHg 61%
    22:00 +5°C° 0 mm 3 mps 747 mmHg 59%
    23:00 +5°C° 0 mm 3 mps 747 mmHg 58%

    21 January, Sunday

    Time Temperature Precipitation Wind Pressure Humidity
    00:00 +5°C° 0 mm 3 mps 746 mmHg 57%
    01:00 +5°C° 0 mm 3 mps 746 mmHg 57%
    02:00 +5°C° 0 mm 3 mps 746 mmHg 58%
    03:00 +5°C° 0 mm 3 mps 746 mmHg 58%
    04:00 +5°C° 0 mm 3 mps 746 mmHg 58%
    05:00 +5°C° 0 mm 3 mps 746 mmHg 57%
    06:00 +5°C° 0 mm 3 mps 746 mmHg 57%
    07:00 +5°C° 0 mm 3 mps 746 mmHg 56%
    08:00 +7°C° 0 mm 3 mps 746 mmHg 54%
    09:00 +7°C° 0 mm 3 mps 746 mmHg 53%
    10:00 +9°C° 0 mm 3 mps 746 mmHg 53%
    11:00 +12°C° 0 mm 2 mps 745 mmHg 52%
    12:00 +14°C° 0 mm 2 mps 745 mmHg 52%
    13:00 +14°C° 0 mm 2 mps 745 mmHg 53%
    14:00 +14°C° 0 mm 1 mps 745 mmHg 54%
    15:00 +14°C° 0 mm 1 mps 745 mmHg 55%
    16:00 +12°C° 0 mm 1 mps 745 mmHg 57%
    17:00 +10°C° 0 mm 2 mps 745 mmHg 59%
    18:00 +8°C° 0 mm 2 mps 746 mmHg 61%
    19:00 +8°C° 0 mm 2 mps 746 mmHg 59%
    20:00 +8°C° 0 mm 3 mps 746 mmHg 57%
    21:00 +7°C° 0 mm 3 mps 745 mmHg 55%
    22:00 +7°C° 0 mm 3 mps 745 mmHg 53%
    23:00 +7°C° 0 mm 3 mps 744 mmHg 52%

    22 January, Monday

    Time Temperature Precipitation Wind Pressure Humidity
    00:00 +7°C° 0 mm 3 mps 744 mmHg 50%
    01:00 +7°C° 0 mm 3 mps 743 mmHg 50%
    02:00 +7°C° 0 mm 3 mps 743 mmHg 50%
    03:00 +8°C° 0 mm 3 mps 742 mmHg 50%
    04:00 +7°C° 0 mm 3 mps 742 mmHg 50%
    05:00 +7°C° 0 mm 3 mps 741 mmHg 51%
    06:00 +7°C° 0 mm 3 mps 741 mmHg 51%
    07:00 +8°C° 0 mm 3 mps 741 mmHg 51%
    08:00 +8°C° 0 mm 3 mps 741 mmHg 51%
    09:00 +9°C° 0 mm 3 mps 740 mmHg 52%
    10:00 +10°C° 0 mm 3 mps 740 mmHg 50%
    11:00 +12°C° 0 mm 3 mps 739 mmHg 48%
    12:00 +13°C° 0 mm 3 mps 739 mmHg 47%
    13:00 +14°C° 0 mm 2 mps 739 mmHg 47%
    14:00 +14°C° 0 mm 2 mps 738 mmHg 48%
    15:00 +14°C° 0 mm 2 mps 738 mmHg 49%
    16:00 +12°C° 0 mm 2 mps 739 mmHg 51%
    17:00 +10°C° 0 mm 2 mps 739 mmHg 54%
    18:00 +9°C° 0 mm 2 mps 739 mmHg 57%
    19:00 +8°C° 0 mm 2 mps 740 mmHg 57%
    20:00 +8°C° 0 mm 2 mps 740 mmHg 57%
    21:00 +8°C° 0 mm 2 mps 740 mmHg 57%
    22:00 +7°C° 0 mm 2 mps 740 mmHg 58%
    23:00 +7°C° 0 mm 3 mps 740 mmHg 58%

    23 January, Tuesday

    Time Temperature Precipitation Wind Pressure Humidity
    00:00 +7°C° 0 mm 3 mps 740 mmHg 59%
    01:00 +7°C° 0 mm 3 mps 740 mmHg 59%
    02:00 +5°C° 0 mm 3 mps 740 mmHg 59%
    03:00 +5°C° 0 mm 3 mps 740 mmHg 60%
    04:00 +5°C° 0 mm 3 mps 740 mmHg 59%
    05:00 +5°C° 0 mm 3 mps 740 mmHg 59%
    06:00 +5°C° 0 mm 3 mps 740 mmHg 59%
    07:00 +7°C° 0 mm 3 mps 740 mmHg 59%
    08:00 +7°C° 0 mm 2 mps 740 mmHg 58%
    09:00 +8°C° 0 mm 2 mps 740 mmHg 58%
    10:00 +9°C° 0 mm 2 mps 740 mmHg 57%
    11:00 +10°C° 0 mm 2 mps 740 mmHg 57%
    12:00 +12°C° 0 mm 1 mps 739 mmHg 56%
    13:00 +12°C° 0.1 mm 1 mps 739 mmHg 58%
    14:00 +12°C° 0.1 mm 1 mps 739 mmHg 61%
    15:00 +12°C° 0.1 mm 1 mps 739 mmHg 63%
    16:00 +11°C° 0.2 mm 1 mps 740 mmHg 66%
    17:00 +10°C° 0.2 mm 1 mps 740 mmHg 70%
    18:00 +8°C° 0.2 mm 0 mps 741 mmHg 73%
    19:00 +9°C° 0.4 mm 1 mps 741 mmHg 77%
    20:00 +8°C° 0.4 mm 1 mps 742 mmHg 81%
    21:00 +8°C° 0.4 mm 1 mps 742 mmHg 85%
    22:00 +7°C° 1.3 mm 1 mps 742 mmHg 87%
    23:00 +7°C° 1.3 mm 1 mps 743 mmHg 89%
    Show more